Weather History for Montgomery, AL

Change the Weather History Date:

Wednesday, September 11, 2013

  Actual Average Record
Temperature  
Mean Temperature 82 °F 78 °F  
Max Temperature 93 °F 89 °F 99 °F (2002)
Min Temperature 70 °F 67 °F 50 °F (1956)
Degree Days  
Heating Degree Days 0 0  
Month to date heating degree days 0 0  
Since 1 July heating degree days 0 0  
Cooling Degree Days 17 13  
Month to date cooling degree days 189 154  
Year to date cooling degree days 2011 1943  
Growing Degree Days 32 (Base 50)    
Moisture  
Dew Point 67 °F    
Average Humidity 64    
Maximum Humidity 90    
Minimum Humidity 38    
Precipitation  
Precipitation 0.00 in 0.13 in 3.09 in (1872)
Month to date precipitation 0.10 1.53  
Year to date precipitation 43.11 38.24  
Sea Level Pressure  
Sea Level Pressure 30.12 in    
Wind  
Wind Speed 5 mph (East)    
Max Wind Speed 14 mph    
Max Gust Speed 20 mph    
Visibility 10 miles    
Events      
T = Trace of Precipitation, MM = Missing Value Source: NWS Daily Summary

Daily Weather History Graph

Daily Weather History Graph

Search for Another Location

Airport:

Trip Planner

Search our weather history database for the weather conditions in past years. The results will help you decide how hot, cold, wet, or windy it might be!

Date:

Astronomy

Sep. 11, 2013 Rise Set
Actual Time 6:27 AM CDT 6:56 PM CDT
Civil Twilight 6:02 AM CDT 7:21 PM CDT
Nautical Twilight 5:33 AM CDT 7:50 PM CDT
Astronomical Twilight 5:04 AM CDT 8:19 PM CDT
Moon 12:32 PM CDT (9/11) 11:14 PM CDT (9/11)
Length of Visible Light 13h 18m
Length of Day
12h 29m
Waxing Crescent, 39% of the Moon is Illuminated
Sep 11
Waxing Crescent
Sep 12
First Quarter
Sep 19
Full
Sep 26
Last Quarter
Oct 4
New

Hourly Weather History & Observations

Time (CDT) Temp. Heat Index Dew Point Humidity Pressure Visibility Wind Dir Wind Speed Gust Speed Precip Events Conditions
12:53 AM 75.0 °F - 69.1 °F 82% 30.14 in 10.0 mi Calm Calm - N/A   Clear
1:53 AM 75.0 °F - 68.0 °F 79% 30.13 in 10.0 mi ENE 3.5 mph - N/A   Clear
2:53 AM 73.9 °F - 68.0 °F 82% 30.13 in 10.0 mi NE 4.6 mph - N/A   Clear
3:53 AM 72.0 °F - 68.0 °F 87% 30.14 in 10.0 mi ENE 3.5 mph - N/A   Clear
4:53 AM 71.1 °F - 68.0 °F 90% 30.14 in 10.0 mi East 4.6 mph - N/A   Clear
5:53 AM 71.1 °F - 68.0 °F 90% 30.15 in 10.0 mi East 6.9 mph - N/A   Clear
6:53 AM 71.1 °F - 66.9 °F 87% 30.17 in 10.0 mi East 5.8 mph - N/A   Clear
7:53 AM 75.9 °F - 69.1 °F 79% 30.19 in 10.0 mi East 4.6 mph - N/A   Clear
8:53 AM 80.1 °F 83.2 °F 70.0 °F 71% 30.19 in 10.0 mi East 6.9 mph - N/A   Clear
9:53 AM 84.0 °F 88.4 °F 70.0 °F 63% 30.19 in 10.0 mi East 9.2 mph - N/A   Clear
10:53 AM 87.1 °F 90.6 °F 68.0 °F 53% 30.17 in 10.0 mi ESE 9.2 mph - N/A   Clear
11:53 AM 89.1 °F 92.1 °F 66.9 °F 48% 30.16 in 10.0 mi East 10.4 mph 19.6 mph N/A   Partly Cloudy
12:53 PM 91.0 °F 95.2 °F 68.0 °F 47% 30.14 in 10.0 mi NE 11.5 mph - N/A   Scattered Clouds
1:53 PM 91.0 °F 93.8 °F 66.0 °F 44% 30.12 in 10.0 mi Variable 6.9 mph - N/A   Scattered Clouds
2:53 PM 93.0 °F 94.6 °F 64.0 °F 38% 30.10 in 10.0 mi ESE 8.1 mph - N/A   Partly Cloudy
3:53 PM 91.9 °F 93.3 °F 64.0 °F 39% 30.08 in 10.0 mi SE 9.2 mph - N/A   Partly Cloudy
4:53 PM 91.0 °F 91.9 °F 63.0 °F 39% 30.07 in 10.0 mi East 5.8 mph - N/A   Partly Cloudy
5:53 PM 90.0 °F 90.6 °F 63.0 °F 40% 30.07 in 10.0 mi SE 4.6 mph - N/A   Scattered Clouds
6:53 PM 82.9 °F 84.6 °F 64.9 °F 54% 30.07 in 10.0 mi Calm Calm - N/A   Clear
7:53 PM 81.0 °F 82.7 °F 64.9 °F 58% 30.08 in 10.0 mi Calm Calm - N/A   Clear
8:53 PM 78.1 °F - 66.0 °F 66% 30.09 in 10.0 mi Calm Calm - N/A   Clear
9:53 PM 75.0 °F - 66.9 °F 76% 30.09 in 10.0 mi Calm Calm - N/A   Clear
10:53 PM 73.9 °F - 66.9 °F 79% 30.09 in 10.0 mi Calm Calm - N/A   Clear
11:53 PM 72.0 °F - 68.0 °F 87% 30.08 in 10.0 mi Calm Calm - N/A   Clear